HK4RAU-80 Weather Reports


time (UTC)temp
C
wind
direction
speed
KPH
gust
KPH
rain 1hr
cm
rain 24hr
cm
rain mn
cm
humidity
%
barometer
mb
20260507214332 17 32 1.6 4.8 0.00 0.00 0.00 75 1013.0
20260507214023 17 32 1.6 4.8 0.00 0.00 0.00 75 1013.0
20260507213717 18 32 1.6 4.8 0.00 0.00 0.00 75 1013.0
20260507213415 17 32 1.6 4.8 0.00 0.00 0.00 75 1013.0
20260507213114 17 32 1.6 4.8 0.00 0.00 0.00 75 1013.0
20260507212807 17 105 3.2 6.4 0.00 0.00 0.00 80 1013.0
20260507212506 17 105 3.2 6.4 0.00 0.00 0.00 80 1013.0
20260507212204 17 105 3.2 6.4 0.00 0.00 0.00 80 1013.0
20260507211903 17 105 3.2 6.4 0.00 0.00 0.00 80 1013.0
20260507211557 17 105 3.2 6.4 0.00 0.00 0.00 80 1013.0
20260507211245 17 105 3.2 6.4 0.00 0.00 0.00 80 1013.0
20260507210938 17 105 3.2 6.4 0.00 0.00 0.00 80 1013.0
20260507210634 17 105 3.2 6.4 0.00 0.00 0.00 80 1013.0
20260507210322 20 105 3.2 6.4 0.00 0.00 0.00 80 1013.0
20260507210011 20 105 3.2 6.4 0.00 0.00 0.00 80 1013.0
20260507205704 20 105 3.2 6.4 0.00 0.00 0.00 80 1013.0
20260507205358 20 105 3.2 6.4 0.00 0.00 0.00 80 1013.0
20260507205050 20 105 3.2 6.4 0.00 0.00 0.00 80 1013.0
20260507204743 20 105 3.2 6.4 0.00 0.00 0.00 80 1013.0
20260507204437 20 105 3.2 6.4 0.00 0.00 0.00 80 1013.0
20260507204130 20 105 3.2 6.4 0.00 0.00 0.00 80 1013.0
20260507203824 20 105 3.2 6.4 0.00 0.00 0.00 80 1013.0
20260507203517 20 105 3.2 6.4 0.00 0.00 0.00 80 1013.0
20260507203211 20 105 3.2 6.4 0.00 0.00 0.00 80 1013.0
20260507202903 20 112 4.8 8.0 0.00 0.00 0.00 84 1014.0
20260507202552 20 112 4.8 8.0 0.00 0.00 0.00 84 1014.0
20260507202240 20 112 4.8 8.0 0.00 0.00 0.00 84 1014.0
20260507201634 20 112 4.8 8.0 0.00 0.00 0.00 84 1014.0
20260507201319 20 112 4.8 8.0 0.00 0.00 0.00 84 1014.0
20260507201012 20 112 4.8 8.0 0.00 0.00 0.00 84 1014.0
20260507200702 20 112 4.8 8.0 0.00 0.00 0.00 84 1014.0
20260507200355 20 112 4.8 8.0 0.00 0.00 0.00 84 1014.0
20260507200053 20 112 4.8 8.0 0.00 0.00 0.00 84 1014.0
20260507195747 20 112 4.8 8.0 0.00 0.00 0.00 84 1014.0
20260507195441 20 112 4.8 8.0 0.00 0.00 0.00 84 1014.0
20260507195057 20 112 4.8 8.0 0.00 0.00 0.00 84 1014.0
20260507194749 20 112 4.8 8.0 0.00 0.00 0.00 84 1014.0
20260507194448 20 112 4.8 8.0 0.00 0.00 0.00 84 1014.0
20260507193519 20 112 4.8 8.0 0.00 0.00 0.00 84 1014.0
20260507193212 20 92 4.8 8.0 0.00 0.00 0.00 78 1014.0
20260507192901 20 92 4.8 8.0 0.00 0.00 0.00 78 1014.0
20260507191220 20 92 4.8 8.0 0.00 0.00 0.00 78 1014.0
20260507190919 20 92 4.8 8.0 0.00 0.00 0.00 78 1014.0
20260507190614 20 92 4.8 8.0 0.00 0.00 0.00 78 1014.0
20260507190308 20 92 4.8 8.0 0.00 0.00 0.00 78 1014.0
20260507190002 20 92 4.8 8.0 0.00 0.00 0.00 78 1014.0
20260507185655 20 92 4.8 8.0 0.00 0.00 0.00 78 1014.0
20260507185348 20 92 4.8 8.0 0.00 0.00 0.00 78 1014.0
20260507185047 20 92 4.8 8.0 0.00 0.00 0.00 78 1014.0
20260507184740 20 92 4.8 8.0 0.00 0.00 0.00 78 1014.0
20260507184433 20 92 4.8 8.0 0.00 0.00 0.00 78 1014.0
20260507184122 20 92 4.8 8.0 0.00 0.00 0.00 78 1014.0
20260507183816 20 2 6.4 4.8 0.00 0.00 0.00 69 1011.0
20260507183509 20 2 6.4 4.8 0.00 0.00 0.00 69 1011.0
20260507183205 20 2 6.4 4.8 0.00 0.00 0.00 69 1011.0
20260507182859 21 58 1.6 8.0 0.00 0.00 0.00 61 1012.0
20260507182552 21 58 1.6 8.0 0.00 0.00 0.00 61 1013.0
20260507182246 20 58 1.6 8.0 0.00 0.00 0.00 61 1013.0
20260507181939 20 58 1.6 8.0 0.00 0.00 0.00 61 1013.0
20260507181628 20 58 1.6 8.0 0.00 0.00 0.00 61 1013.0
20260507181312 20 58 1.6 8.0 0.00 0.00 0.00 61 1013.0
20260507181010 21 58 1.6 8.0 0.00 0.00 0.00 61 1013.0
20260507180704 21 58 1.6 8.0 0.00 0.00 0.00 61 1013.0
20260507180351 21 58 1.6 8.0 0.00 0.00 0.00 61 1013.0
20260507180045 20 58 1.6 8.0 0.00 0.00 0.00 61 1013.0
20260507175738 21 58 1.6 8.0 0.00 0.00 0.00 61 1013.0
20260507175437 20 58 1.6 8.0 0.00 0.00 0.00 61 1013.0
20260507175130 21 108 1.6 8.0 0.00 0.00 0.00 55 1013.0
20260507174827 21 108 1.6 8.0 0.00 0.00 0.00 55 1013.0
20260507174520 20 58 1.6 8.0 0.00 0.00 0.00 61 1013.0
20260507174218 21 108 1.6 8.0 0.00 0.00 0.00 55 1013.0
20260507173917 21 108 1.6 8.0 0.00 0.00 0.00 55 1013.0
20260507173615 21 108 1.6 8.0 0.00 0.00 0.00 55 1013.0
20260507173312 21 108 1.6 8.0 0.00 0.00 0.00 55 1013.0
20260507173007 21 108 1.6 8.0 0.00 0.00 0.00 55 1013.0
20260507172700 20 108 3.2 9.7 0.00 0.00 0.00 55 1015.0
20260507172355 20 108 3.2 9.7 0.00 0.00 0.00 55 1015.0
20260507172039 22 107 4.8 8.0 0.00 0.00 0.00 57 1015.0
20260507171736 22 107 4.8 8.0 0.00 0.00 0.00 57 1015.0
20260507171433 22 107 4.8 8.0 0.00 0.00 0.00 57 1015.0
20260507171130 22 107 4.8 8.0 0.00 0.00 0.00 57 1015.0
20260507170829 22 107 4.8 8.0 0.00 0.00 0.00 57 1015.0
20260507170517 22 107 4.8 8.0 0.00 0.00 0.00 57 1015.0
20260507170216 22 107 4.8 8.0 0.00 0.00 0.00 57 1015.0
20260507165910 21 107 4.8 8.0 0.00 0.00 0.00 57 1015.0
20260507165603 21 107 4.8 8.0 0.00 0.00 0.00 57 1015.0
20260507165251 22 107 4.8 8.0 0.00 0.00 0.00 57 1015.0
20260507164945 21 107 4.8 8.0 0.00 0.00 0.00 57 1015.0
20260507164638 21 107 4.8 8.0 0.00 0.00 0.00 57 1015.0
20260507164332 21 107 4.8 8.0 0.00 0.00 0.00 57 1015.0
20260507164021 20 107 4.8 9.7 0.00 0.00 0.00 57 1016.0
20260507163714 21 107 4.8 8.0 0.00 0.00 0.00 57 1016.0
20260507163412 21 107 4.8 8.0 0.00 0.00 0.00 57 1016.0
20260507163105 20 107 4.8 9.7 0.00 0.00 0.00 57 1016.0
20260507162759 21 107 4.8 8.0 0.00 0.00 0.00 57 1016.0
20260507162452 21 107 4.8 8.0 0.00 0.00 0.00 57 1016.0
20260507162151 21 107 4.8 8.0 0.00 0.00 0.00 57 1016.0
20260507161845 21 107 4.8 8.0 0.00 0.00 0.00 57 1016.0
20260507161539 20 107 4.8 9.7 0.00 0.00 0.00 57 1016.0
20260507161232 21 107 4.8 8.0 0.00 0.00 0.00 57 1016.0
20260507160920 21 107 4.8 8.0 0.00 0.00 0.00 57 1016.0
20260507160617 20 107 4.8 8.0 0.00 0.00 0.00 57 1016.0
20260507160311 20 107 4.8 8.0 0.00 0.00 0.00 57 1016.0
20260507160005 20 107 4.8 8.0 0.00 0.00 0.00 57 1016.0
20260507155658 20 107 4.8 8.0 0.00 0.00 0.00 57 1016.0
20260507155351 19 107 4.8 8.0 0.00 0.00 0.00 57 1016.0
20260507155045 19 107 4.8 8.0 0.00 0.00 0.00 57 1016.0
20260507154737 18 107 4.8 9.7 0.00 0.00 0.00 57 1016.0
20260507154430 18 107 4.8 9.7 0.00 0.00 0.00 57 1016.0
20260507154124 21 110 4.8 8.0 0.00 0.00 0.00 59 1016.0
20260507153819 21 110 4.8 8.0 0.00 0.00 0.00 59 1017.0
20260507153513 20 110 4.8 8.0 0.00 0.00 0.00 59 1017.0
20260507153207 18 107 4.8 9.7 0.00 0.00 0.00 57 1016.0
20260507152900 21 110 4.8 8.0 0.00 0.00 0.00 59 1017.0
20260507152559 20 110 4.8 8.0 0.00 0.00 0.00 59 1017.0
20260507152257 20 110 4.8 8.0 0.00 0.00 0.00 59 1017.0
20260507151951 19 110 4.8 8.0 0.00 0.00 0.00 59 1017.0
20260507151645 19 110 4.8 8.0 0.00 0.00 0.00 59 1017.0
20260507151343 18 110 4.8 9.7 0.00 0.00 0.00 59 1017.0
20260507151040 21 137 6.4 11.3 0.00 0.00 0.00 79 1017.0
20260507150734 18 110 4.8 9.7 0.00 0.00 0.00 59 1017.0
20260507150432 21 137 6.4 11.3 0.00 0.00 0.00 79 1017.0
20260507150131 21 137 6.4 11.3 0.00 0.00 0.00 79 1017.0
20260507145824 20 137 6.4 11.3 0.00 0.00 0.00 79 1017.0
20260507145518 20 137 6.4 11.3 0.00 0.00 0.00 79 1017.0
20260507145216 20 137 6.4 11.3 0.00 0.00 0.00 79 1017.0
20260507144909 20 137 6.4 11.3 0.00 0.00 0.00 79 1017.0
20260507144603 19 137 6.4 11.3 0.00 0.00 0.00 79 1017.0
20260507144302 19 137 6.4 11.3 0.00 0.00 0.00 79 1017.0
20260507143955 18 137 6.4 11.3 0.00 0.00 0.00 79 1017.0
20260507143648 19 137 6.4 11.3 0.00 0.00 0.00 79 1017.0
20260507143342 18 137 6.4 11.3 0.00 0.00 0.00 79 1017.0
20260507143036 18 137 6.4 11.3 0.00 0.00 0.00 79 1017.0
20260507142729 18 137 6.4 11.3 0.00 0.00 0.00 79 1018.0
20260507142427 17 137 6.4 11.3 0.00 0.00 0.00 79 1018.0
20260507142125 17 137 6.4 11.3 0.00 0.00 0.00 79 1018.0
20260507141824 17 137 6.4 11.3 0.00 0.00 0.00 79 1018.0
20260507141522 17 137 6.4 11.3 0.00 0.00 0.00 79 1018.0
20260507141216 16 137 6.4 11.3 0.00 0.00 0.00 79 1018.0
20260507140914 16 137 6.4 11.3 0.00 0.00 0.00 79 1018.0
20260507140608 16 137 6.4 11.3 0.00 0.00 0.00 79 1018.0
20260507140306 15 137 6.4 11.3 0.00 0.00 0.00 79 1018.0
20260507140006 15 137 6.4 11.3 0.00 0.00 0.00 79 1018.0
20260507135658 15 137 6.4 11.3 0.00 0.00 0.00 79 1018.0
20260507135352 15 137 6.4 11.3 0.00 0.00 0.00 79 1018.0
20260507135045 15 137 6.4 11.3 0.00 0.00 0.00 79 1018.0
20260507134739 15 137 6.4 11.3 0.00 0.00 0.00 79 1018.0
20260507134432 14 137 6.4 11.3 0.00 0.00 0.00 79 1018.0
20260507134131 15 137 6.4 11.3 0.00 0.00 0.00 79 1018.0
20260507133822 14 137 6.4 11.3 0.00 0.00 0.00 79 1018.0
20260507133516 14 137 6.4 11.3 0.00 0.00 0.00 79 1018.0
20260507133210 13 137 6.4 11.3 0.00 0.00 0.00 79 1018.0
20260507132903 13 137 6.4 11.3 0.00 0.00 0.00 79 1018.0
20260507132556 16 146 8.0 12.9 0.00 0.00 0.00 92 1018.0
20260507132245 14 137 6.4 11.3 0.00 0.00 0.00 79 1018.0
20260507131939 13 137 6.4 11.3 0.00 0.00 0.00 79 1018.0
20260507131632 16 146 8.0 12.9 0.00 0.00 0.00 92 1018.0
20260507131326 16 146 8.0 12.9 0.00 0.00 0.00 92 1018.0
20260507131024 16 146 8.0 12.9 0.00 0.00 0.00 92 1018.0
20260507130718 16 146 8.0 12.9 0.00 0.00 0.00 92 1018.0
20260507130416 16 146 8.0 12.9 0.00 0.00 0.00 92 1018.0
20260507130110 15 146 8.0 12.9 0.00 0.00 0.00 92 1018.0
20260507125809 16 146 8.0 12.9 0.00 0.00 0.00 92 1018.0
20260507125507 15 146 8.0 12.9 0.00 0.00 0.00 92 1018.0
20260507125201 15 146 8.0 12.9 0.00 0.00 0.00 92 1018.0
20260507124844 15 146 8.0 12.9 0.00 0.00 0.00 92 1018.0
20260507124538 14 146 8.0 12.9 0.00 0.00 0.00 92 1018.0
20260507124231 14 146 8.0 12.9 0.00 0.00 0.00 92 1018.0
20260507123925 13 146 8.0 12.9 0.00 0.00 0.00 92 1018.0
20260507123618 14 146 8.0 12.9 0.00 0.00 0.00 92 1018.0
20260507123307 13 146 8.0 12.9 0.00 0.00 0.00 92 1018.0
20260507123000 13 146 8.0 12.9 0.00 0.00 0.00 92 1018.0
20260507122653 12 146 8.0 12.9 0.00 0.00 0.00 92 1018.0
20260507122346 12 146 8.0 12.9 0.00 0.00 0.00 92 1018.0
20260507122040 12 146 8.0 12.9 0.00 0.00 0.00 92 1018.0
20260507121437 11 146 8.0 12.9 0.00 0.00 0.00 92 1018.0
20260507121130 11 146 8.0 12.9 0.00 0.00 0.00 92 1018.0
20260507120456 13 146 8.0 12.9 0.00 0.00 0.00 92 1018.0
20260507120154 13 146 8.0 12.9 0.00 0.00 0.00 92 1018.0
20260507115845 13 146 8.0 12.9 0.00 0.00 0.00 92 1018.0
20260507115538 13 146 8.0 12.9 0.00 0.00 0.00 92 1018.0
20260507114911 12 146 8.0 12.9 0.00 0.00 0.00 92 1018.0
20260507114610 13 147 8.0 12.9 0.00 0.00 0.00 90 1018.0
20260507114308 13 147 8.0 12.9 0.00 0.00 0.00 90 1018.0
20260507114002 12 147 9.7 14.5 0.00 0.00 0.00 90 1018.0
20260507113655 12 147 9.7 14.5 0.00 0.00 0.00 90 1018.0
20260507113354 12 147 9.7 14.5 0.00 0.00 0.00 90 1018.0
20260507113047 12 147 9.7 14.5 0.00 0.00 0.00 90 1018.0
20260507112741 12 148 9.7 14.5 0.00 0.00 0.00 94 1019.0
20260507112439 12 148 9.7 14.5 0.00 0.00 0.00 94 1019.0
20260507112132 12 148 9.7 14.5 0.00 0.00 0.00 94 1019.0
20260507111835 12 148 9.7 14.5 0.00 0.00 0.00 94 1019.0
20260507111524 12 148 9.7 14.5 0.00 0.00 0.00 94 1019.0
20260507111221 12 148 9.7 14.5 0.00 0.00 0.00 94 1019.0
20260507110915 12 148 9.7 14.5 0.00 0.00 0.00 94 1019.0
20260507110522 12 148 9.7 14.5 0.00 0.00 0.00 94 1019.0
20260507110220 12 148 9.7 14.5 0.00 0.00 0.00 94 1019.0
20260507105914 12 148 9.7 14.5 0.00 0.00 0.00 94 1019.0
20260507105607 12 148 9.7 14.5 0.00 0.00 0.00 94 1019.0
20260507105300 12 148 9.7 14.5 0.00 0.00 0.00 94 1019.0
20260507104647 12 148 9.7 14.5 0.00 0.00 0.00 94 1019.0
20260507104346 12 148 9.7 14.5 0.00 0.00 0.00 94 1019.0
20260507104034 12 148 9.7 14.5 0.00 0.00 0.00 94 1019.0
20260507103733 12 146 9.7 12.9 0.00 0.00 0.00 94 1018.0
20260507103426 12 146 9.7 12.9 0.00 0.00 0.00 94 1018.0
20260507103115 12 146 9.7 12.9 0.00 0.00 0.00 94 1018.0
20260507102808 12 146 9.7 12.9 0.00 0.00 0.00 94 1018.0
20260507102456 12 146 9.7 12.9 0.00 0.00 0.00 94 1018.0
20260507102155 12 146 9.7 12.9 0.00 0.00 0.00 94 1018.0
20260507101848 12 146 9.7 12.9 0.00 0.00 0.00 94 1018.0
20260507101537 12 146 9.7 12.9 0.00 0.00 0.00 94 1018.0
20260507101225 12 146 9.7 12.9 0.00 0.00 0.00 94 1018.0
20260507100919 12 146 9.7 12.9 0.00 0.00 0.00 94 1018.0
20260507100612 12 146 9.7 12.9 0.00 0.00 0.00 94 1018.0
20260507100311 12 146 9.7 12.9 0.00 0.00 0.00 94 1018.0
20260507100002 12 146 9.7 12.9 0.00 0.00 0.00 94 1018.0
20260507095659 12 146 9.7 12.9 0.00 0.00 0.00 94 1018.0
20260507095347 12 146 9.7 12.9 0.00 0.00 0.00 94 1018.0
20260507094734 12 146 9.7 12.9 0.00 0.00 0.00 94 1018.0
20260507094425 12 146 9.7 12.9 0.00 0.00 0.00 94 1018.0
20260507094118 12 146 9.7 12.9 0.00 0.00 0.00 94 1018.0
20260507093810 13 144 8.0 12.9 0.00 0.00 0.00 94 1017.0
20260507093509 12 146 9.7 12.9 0.00 0.00 0.00 94 1018.0
20260507093202 13 144 8.0 12.9 0.00 0.00 0.00 94 1017.0
20260507092856 13 144 8.0 12.9 0.00 0.00 0.00 94 1017.0
20260507092555 12 144 8.0 12.9 0.00 0.00 0.00 94 1017.0
20260507092248 13 144 8.0 12.9 0.00 0.00 0.00 94 1017.0
20260507091946 13 144 8.0 12.9 0.00 0.00 0.00 94 1017.0
20260507091639 12 144 8.0 12.9 0.00 0.00 0.00 94 1017.0
20260507091333 13 144 8.0 12.9 0.00 0.00 0.00 94 1017.0
20260507091026 12 144 8.0 12.9 0.00 0.00 0.00 94 1017.0
20260507090720 13 144 8.0 12.9 0.00 0.00 0.00 94 1017.0
20260507090413 13 144 8.0 12.9 0.00 0.00 0.00 94 1017.0
20260507090111 13 144 8.0 12.9 0.00 0.00 0.00 94 1017.0
20260507085808 13 144 8.0 12.9 0.00 0.00 0.00 94 1017.0
20260507085507 13 144 8.0 12.9 0.00 0.00 0.00 94 1017.0
20260507085204 13 144 8.0 12.9 0.00 0.00 0.00 94 1017.0
20260507084858 13 144 8.0 12.9 0.00 0.00 0.00 94 1017.0
20260507084551 13 144 8.0 12.9 0.00 0.00 0.00 94 1017.0
20260507084250 13 144 8.0 12.9 0.00 0.00 0.00 94 1017.0
20260507083948 13 144 8.0 12.9 0.00 0.00 0.00 94 1017.0
20260507083647 13 144 8.0 12.9 0.00 0.00 0.00 94 1017.0
20260507083340 13 144 8.0 12.9 0.00 0.00 0.00 94 1017.0
20260507083033 13 144 8.0 12.9 0.00 0.00 0.00 94 1017.0
20260507082726 14 147 8.0 12.9 0.00 0.00 0.00 92 1017.0
20260507082424 14 147 8.0 12.9 0.00 0.00 0.00 92 1017.0
20260507082123 14 147 8.0 12.9 0.00 0.00 0.00 92 1017.0
20260507081816 13 147 8.0 12.9 0.00 0.00 0.00 92 1017.0
20260507081508 13 147 8.0 12.9 0.00 0.00 0.00 92 1017.0
20260507081207 13 147 8.0 12.9 0.00 0.00 0.00 92 1017.0
20260507080901 13 147 8.0 12.9 0.00 0.00 0.00 92 1017.0
20260507080554 12 147 8.0 12.9 0.00 0.00 0.00 92 1017.0
20260507080248 12 147 8.0 12.9 0.00 0.00 0.00 92 1017.0
20260507075941 12 147 8.0 12.9 0.00 0.00 0.00 92 1017.0
20260507075640 14 147 8.0 12.9 0.00 0.00 0.00 93 1017.0
20260507075339 14 147 8.0 12.9 0.00 0.00 0.00 93 1017.0
20260507075037 14 147 8.0 12.9 0.00 0.00 0.00 93 1017.0
20260507074731 14 147 8.0 12.9 0.00 0.00 0.00 93 1017.0
20260507074424 13 147 8.0 12.9 0.00 0.00 0.00 93 1017.0
20260507074118 13 147 8.0 12.9 0.00 0.00 0.00 93 1017.0
20260507073811 13 147 8.0 12.9 0.00 0.00 0.00 93 1017.0
20260507073505 13 147 8.0 12.9 0.00 0.00 0.00 93 1017.0
20260507073203 13 147 8.0 12.9 0.00 0.00 0.00 93 1017.0
20260507072857 12 147 8.0 12.9 0.00 0.00 0.00 93 1018.0
20260507072555 12 147 8.0 12.9 0.00 0.00 0.00 93 1018.0
20260507072244 12 147 8.0 12.9 0.00 0.00 0.00 93 1018.0
20260507071927 12 147 8.0 12.9 0.00 0.00 0.00 93 1018.0
20260507071616 14 149 8.0 12.9 0.00 0.00 0.00 94 1018.0
20260507071314 14 149 8.0 12.9 0.00 0.00 0.00 94 1018.0
20260507071008 14 149 8.0 12.9 0.00 0.00 0.00 94 1018.0
20260507070701 13 149 8.0 12.9 0.00 0.00 0.00 94 1018.0
20260507070355 13 149 8.0 12.9 0.00 0.00 0.00 94 1018.0
20260507070053 13 149 8.0 12.9 0.00 0.00 0.00 94 1018.0
20260507065747 13 149 8.0 12.9 0.00 0.00 0.00 94 1018.0
20260507065435 13 149 8.0 12.9 0.00 0.00 0.00 94 1018.0
20260507065129 12 149 8.0 12.9 0.00 0.00 0.00 94 1018.0
20260507064822 12 149 8.0 12.9 0.00 0.00 0.00 94 1018.0
20260507064521 12 149 8.0 12.9 0.00 0.00 0.00 94 1018.0
20260507064214 12 149 8.0 12.9 0.00 0.00 0.00 94 1018.0
20260507063908 12 149 8.0 12.9 0.00 0.00 0.00 94 1018.0
20260507063604 11 149 8.0 12.9 0.00 0.00 0.00 94 1019.0
20260507063302 11 149 8.0 12.9 0.00 0.00 0.00 94 1019.0
20260507062956 11 149 8.0 12.9 0.00 0.00 0.00 94 1019.0
20260507062649 11 149 8.0 12.9 0.00 0.00 0.00 94 1019.0
20260507062347 11 149 8.0 12.9 0.00 0.00 0.00 94 1019.0
20260507062040 10 149 8.0 12.9 0.00 0.00 0.00 94 1019.0
20260507061739 15 149 8.0 12.9 0.00 0.00 0.00 94 1019.0
20260507061437 10 149 8.0 12.9 0.00 0.00 0.00 94 1019.0
20260507061131 15 149 8.0 12.9 0.00 0.00 0.00 94 1019.0
20260507060823 10 149 8.0 12.9 0.00 0.00 0.00 94 1019.0
20260507060521 15 149 8.0 12.9 0.00 0.00 0.00 94 1019.0
20260507060220 15 149 8.0 12.9 0.00 0.00 0.00 94 1019.0
20260507055919 15 149 8.0 12.9 0.00 0.00 0.00 94 1019.0
20260507055617 15 149 8.0 12.9 0.00 0.00 0.00 94 1019.0
20260507055311 15 149 8.0 12.9 0.00 0.00 0.00 94 1019.0
20260507055004 15 149 8.0 12.9 0.00 0.00 0.00 94 1019.0
20260507054658 15 149 8.0 12.9 0.00 0.00 0.00 94 1019.0
20260507054027 15 149 8.0 12.9 0.00 0.00 0.00 94 1019.0
20260507053719 14 141 8.0 16.1 0.00 0.00 0.00 93 1019.0
20260507053058 14 141 8.0 16.1 0.00 0.00 0.00 93 1019.0
20260507052757 14 141 8.0 16.1 0.00 0.00 0.00 93 1019.0
20260507052450 13 141 8.0 16.1 0.00 0.00 0.00 93 1019.0
20260507052143 14 141 8.0 16.1 0.00 0.00 0.00 93 1019.0
20260507051836 14 141 8.0 16.1 0.00 0.00 0.00 93 1019.0
20260507051530 13 141 8.0 16.1 0.00 0.00 0.00 93 1019.0
20260507050551 13 141 8.0 16.1 0.00 0.00 0.00 93 1019.0
20260507050227 13 141 8.0 16.1 0.00 0.00 0.00 93 1019.0
20260507045915 13 141 8.0 16.1 0.00 0.00 0.00 93 1019.0
20260507044923 12 141 8.0 16.1 0.00 0.00 0.00 93 1019.0
20260507044611 12 141 8.0 16.1 0.00 0.00 0.00 93 1019.0
20260507044300 12 141 8.0 16.1 0.00 0.00 0.00 93 1019.0
20260507043953 12 141 8.0 16.1 0.00 0.00 0.00 93 1019.0
20260507043651 12 141 8.0 16.1 0.00 0.00 0.00 93 1019.0
20260507043345 11 141 9.7 16.1 0.00 0.00 0.00 93 1020.0
20260507043043 12 141 8.0 16.1 0.00 0.00 0.00 93 1019.0
20260507042742 11 141 9.7 16.1 0.00 0.00 0.00 93 1020.0
20260507042134 14 141 8.0 16.1 0.00 0.00 0.00 93 1020.0
20260507041830 13 141 9.7 16.1 0.00 0.00 0.00 93 1020.0
20260507041519 11 141 9.7 16.1 0.00 0.00 0.00 93 1020.0
20260507041208 14 141 8.0 16.1 0.00 0.00 0.00 93 1020.0
20260507040906 13 141 9.7 16.1 0.00 0.00 0.00 93 1020.0
20260507040604 13 141 9.7 16.1 0.00 0.00 0.00 93 1020.0
20260507040258 14 141 8.0 16.1 0.00 0.00 0.00 93 1020.0
20260507035946 13 141 9.7 16.1 0.00 0.00 0.00 93 1020.0
20260507035640 14 141 8.0 16.1 0.00 0.00 0.00 93 1020.0
20260507035338 13 141 9.7 16.1 0.00 0.00 0.00 93 1020.0
20260507035032 14 140 8.0 16.1 0.00 0.00 0.00 92 1020.0
20260507034730 14 140 8.0 16.1 0.00 0.00 0.00 92 1020.0
20260507034429 14 140 8.0 16.1 0.00 0.00 0.00 92 1020.0
20260507034128 14 140 8.0 16.1 0.00 0.00 0.00 92 1020.0
20260507033821 13 140 9.7 16.1 0.00 0.00 0.00 92 1020.0
20260507033510 13 140 9.7 16.1 0.00 0.00 0.00 92 1020.0
20260507033205 13 140 9.7 16.1 0.00 0.00 0.00 92 1020.0
20260507032904 14 140 8.0 16.1 0.00 0.00 0.00 92 1020.0
20260507032602 13 140 8.0 16.1 0.00 0.00 0.00 92 1020.0
20260507032301 13 140 8.0 16.1 0.00 0.00 0.00 92 1020.0
20260507031954 14 140 8.0 16.1 0.00 0.00 0.00 92 1020.0
20260507031647 13 140 8.0 16.1 0.00 0.00 0.00 92 1020.0
20260507031341 13 140 8.0 16.1 0.00 0.00 0.00 92 1020.0
20260507031035 13 140 8.0 16.1 0.00 0.00 0.00 92 1020.0
20260507030733 13 140 8.0 16.1 0.00 0.00 0.00 92 1020.0
20260507030432 12 140 9.7 16.1 0.00 0.00 0.00 92 1020.0
20260507030130 12 140 9.7 16.1 0.00 0.00 0.00 92 1020.0
20260507025828 14 144 8.0 12.9 0.00 0.00 0.00 94 1020.0
20260507025525 14 144 8.0 12.9 0.00 0.00 0.00 94 1020.0
20260507025216 13 144 8.0 12.9 0.00 0.00 0.00 94 1020.0
20260507024915 14 144 8.0 12.9 0.00 0.00 0.00 94 1020.0
20260507024613 13 144 8.0 12.9 0.00 0.00 0.00 94 1020.0
20260507024307 13 144 8.0 12.9 0.00 0.00 0.00 94 1020.0
20260507024005 13 144 8.0 12.9 0.00 0.00 0.00 94 1020.0
20260507023703 12 144 9.7 14.5 0.00 0.00 0.00 94 1020.0
20260507023400 13 144 8.0 12.9 0.00 0.00 0.00 94 1020.0
20260507023059 13 144 8.0 12.9 0.00 0.00 0.00 94 1020.0
20260507022752 12 144 9.7 14.5 0.00 0.00 0.00 94 1020.0